Weather History for Keahole Point, HI

Change the Weather History Date:

Friday, October 5, 2012

  Actual Average Record
Temperature  
Mean Temperature 80 °F -  
Max Temperature 86 °F 84 °F 93 °F (1986)
Min Temperature 75 °F 73 °F 70 °F (1985)
Cooling Degree Days 16    
Growing Degree Days 30 (Base 50)    
Moisture  
Dew Point 67 °F    
Average Humidity 62    
Maximum Humidity 68    
Minimum Humidity 53    
Precipitation  
Precipitation 0.00 in - - ()
Sea Level Pressure  
Sea Level Pressure 29.94 in    
Wind  
Wind Speed 9 mph (SSW)    
Max Wind Speed 13 mph    
Max Gust Speed -    
Visibility 10 miles    
Events      
Averages and records for this station are not official NWS values.
T = Trace of Precipitation, MM = Missing Value Source: NWS Daily Summary

Daily Weather History Graph

Daily Weather History Graph

Search for Another Location

Airport:

Trip Planner

Search our weather history database for the weather conditions in past years. The results will help you decide how hot, cold, wet, or windy it might be!

Date:

Astronomy

Oct. 05, 2012 Rise Set
Actual Time 6:16 AM HST 6:08 PM HST
Civil Twilight 5:54 AM HST 6:30 PM HST
Nautical Twilight 5:28 AM HST 6:55 PM HST
Astronomical Twilight 5:03 AM HST 7:21 PM HST
Moon 10:16 PM HST (10/5) 10:56 AM HST (10/5)
Length of Visible Light 12h 36m
Length of Day
11h 52m
Waning Gibbous, 72% of the Moon is Illuminated
Oct 5
Waning Gibbous
Oct 7
Last Quarter
Oct 15
New
Oct 21
First Quarter
Oct 29
Full

Hourly Weather History & Observations

Time (HST) Temp. Heat Index Dew Point Humidity Pressure Visibility Wind Dir Wind Speed Gust Speed Precip Events Conditions
12:53 AM 79.0 °F - 66.9 °F 66% 29.98 in 10.0 mi SE 11.5 mph - N/A   Mostly Cloudy
1:53 AM 79.0 °F - 66.9 °F 66% 29.97 in 10.0 mi ESE 9.2 mph - N/A   Overcast
2:53 AM 78.1 °F - 66.9 °F 68% 29.96 in 10.0 mi ESE 6.9 mph - N/A   Clear
3:53 AM 77.0 °F - 64.0 °F 64% 29.94 in 10.0 mi ESE 6.9 mph - N/A   Clear
4:53 AM 75.9 °F - 62.1 °F 62% 29.95 in 10.0 mi East 5.8 mph - N/A   Clear
5:53 AM 77.0 °F - 63.0 °F 62% 29.96 in 10.0 mi East 5.8 mph - N/A   Clear
6:53 AM 77.0 °F - 64.0 °F 64% 29.96 in 10.0 mi ESE 5.8 mph - N/A   Clear
7:53 AM 80.1 °F 82.3 °F 66.9 °F 64% 29.97 in 10.0 mi SE 9.2 mph - N/A   Clear
8:53 AM 82.9 °F 85.8 °F 68.0 °F 60% 29.97 in 10.0 mi South 11.5 mph - N/A   Clear
9:53 AM 82.9 °F 86.5 °F 69.1 °F 63% 29.98 in 10.0 mi South 12.7 mph - N/A   Clear
10:53 AM 84.9 °F 88.2 °F 68.0 °F 57% 29.96 in 10.0 mi SSW 11.5 mph - N/A   Clear
11:53 AM 86.0 °F 88.8 °F 66.9 °F 53% 29.95 in 10.0 mi WSW 10.4 mph - N/A   Partly Cloudy
12:53 PM 84.9 °F 87.6 °F 66.9 °F 55% 29.92 in 10.0 mi SW 11.5 mph - N/A   Mostly Cloudy
1:53 PM 84.9 °F 87.6 °F 66.9 °F 55% 29.91 in 10.0 mi SSW 11.5 mph - N/A   Overcast
2:53 PM 84.9 °F 87.6 °F 66.9 °F 55% 29.89 in 10.0 mi SSW 11.5 mph - N/A   Mostly Cloudy
3:53 PM 84.0 °F 86.5 °F 66.9 °F 56% 29.90 in 10.0 mi WSW 10.4 mph - N/A   Overcast
4:53 PM 82.9 °F 85.4 °F 66.9 °F 58% 29.90 in 10.0 mi SW 10.4 mph - N/A   Overcast
5:53 PM 82.0 °F 84.5 °F 66.9 °F 60% 29.91 in 10.0 mi WSW 9.2 mph - N/A   Overcast
6:53 PM 81.0 °F 83.3 °F 66.9 °F 62% 29.91 in 10.0 mi WSW 6.9 mph - N/A   Overcast
7:53 PM 81.0 °F 83.8 °F 68.0 °F 65% 29.93 in 10.0 mi SW 8.1 mph - N/A   Overcast
8:53 PM 80.1 °F 82.7 °F 68.0 °F 67% 29.95 in 10.0 mi SW 8.1 mph - N/A   Overcast
9:53 PM 80.1 °F 82.7 °F 68.0 °F 67% 29.95 in 10.0 mi SW 5.8 mph - N/A   Overcast
10:53 PM 80.1 °F 82.7 °F 68.0 °F 67% 29.95 in 10.0 mi WSW 6.9 mph - N/A   Overcast
11:03 PM 80.6 °F 83.2 °F 68.0 °F 65% 29.94 in 10.0 mi SW 5.8 mph - N/A   Overcast
11:53 PM 80.1 °F 82.7 °F 68.0 °F 67% 29.95 in 10.0 mi WSW 5.8 mph - N/A   Overcast